Flag for U.S.A. Weather past 2 weeks in Wilmington, North Carolina, U.S.A.

Now
89 °F

Scattered clouds.


Feels Like: 96 °F
Forecast: 76 / 89 °F
Wind: 5 mph from North

Location: New Hanover International Airport

Current Time: Aug 1, 2015 at 3:06:15 PM

Latest Report: Aug 1, 2015 at 1:53 PM


Visibility: 10 mi

Pressure: 29.91 "Hg

Humidity: 57%

Dew point: 72 °F

Location of WilmingtonLocation

Historic Weather in Wilmington — Graph

°F

Wilmington temperature yesterday

Maximum temperature yesterday: 91 °F (at 2:53 PM)
Minimum temperature yesterday: 76 °F (at 6:53 PM)
Average temperature yesterday: 81 °F

Past Weeks' High & Low Weather Summary

 TemperatureHumidityPressure
High99 °F (Jul 21, 3:53 PM)97% (Jul 18, 4:53 AM)30.05 "Hg (Jul 18, 4:53 AM)
Low67 °F (Jul 25, 4:53 AM)42% (Jul 21, 3:53 PM)29.71 "Hg (Jul 21, 4:53 PM)
Average81 °F77%29.92 "Hg
* Reported Jul 17 1:53 PM — Aug 1 1:53 PM, Wilmington, Weather by CustomWeather, © 2015

Note: Actual official high and low records may vary slightly from our data, if they occured in-between our weather recording intervals... More about our weather records

Advertising

Wilmington weather history for previous 24 hours

 ConditionsComfort  
Time TempWeatherWind HumidityBarometerVisibility
1:53 PM
Sat, Aug 1
89 °FScattered clouds.5 mph57%29.91 "Hg10 mi
1:03 PM87 °FSunny.No wind63%29.93 "Hg10 mi
12:53 PM87 °FSunny.7 mph67%29.93 "Hg10 mi
11:53 AM85 °FPartly sunny.5 mph72%29.94 "Hg10 mi
10:53 AM83 °FPassing clouds.7 mph77%29.94 "Hg10 mi
9:53 AM81 °FSunny.3 mph82%29.93 "Hg10 mi
8:53 AM78 °FSunny.5 mph87%29.92 "Hg10 mi
7:53 AM77 °FPartly sunny.3 mph88%29.91 "Hg10 mi
6:53 AM75 °FPassing clouds.No wind94%29.92 "Hg9 mi
5:53 AM74 °FClear.3 mph94%29.90 "Hg9 mi
4:53 AM75 °FClear.No wind94%29.88 "Hg10 mi
3:53 AM76 °FClear.6 mph94%29.89 "Hg10 mi
2:53 AM76 °FPassing clouds.No wind97%29.90 "Hg8 mi
1:53 AM77 °FPassing clouds.5 mph90%29.92 "Hg10 mi
1:04 AM77 °FOvercast.3 mph94%29.94 "Hg7 mi
12:53 AM77 °FFog.5 mph94%29.94 "Hg6 mi
11:53 PM
Fri, Jul 31
76 °FFog.No wind97%29.92 "Hg6 mi
10:53 PM77 °FPassing clouds.3 mph94%29.93 "Hg7 mi
9:53 PM77 °FClear.3 mph94%29.93 "Hg10 mi
8:53 PM76 °FPartly sunny.3 mph97%29.92 "Hg10 mi
7:53 PM76 °FLight rain. Scattered clouds.5 mph94%29.90 "Hg8 mi
6:53 PM76 °FThunderstorms. Broken clouds.9 mph91%29.91 "Hg7 mi
6:01 PM78 °FThunderstorms. Mostly cloudy.15 mph87%29.88 "Hg8 mi
4:53 PM84 °FRain. Mostly cloudy.3 mph85%29.86 "Hg4 mi
3:53 PM90 °FBroken clouds.7 mph66%29.87 "Hg10 mi
Weather by CustomWeather, © 2015

See weather overviewHow to use our weather pages